Weather History for Broome, WE

Change the Weather History Date:

Sunday, February 3, 2013

  Actual Average Record
Temperature  
Mean Temperature 89 °F -  
Max Temperature 93 °F 91 °F - ()
Min Temperature 85 °F 79 °F - ()
Cooling Degree Days 24    
Growing Degree Days 39 (Base 50)    
Moisture  
Dew Point 78 °F    
Average Humidity 70    
Maximum Humidity 84    
Minimum Humidity 52    
Precipitation  
Precipitation 0.00 in 0.21 in - ()
Sea Level Pressure  
Sea Level Pressure 29.82 in    
Wind  
Wind Speed 9 mph ()    
Max Wind Speed 14 mph    
Max Gust Speed -    
Visibility 7.6 miles    
Events      
T = Trace of Precipitation, MM = Missing Value Source: Averaged Metar Reports

Daily Weather History Graph

Daily Weather History Graph

Search for Another Location

Airport:

Trip Planner

Search our weather history database for the weather conditions in past years. The results will help you decide how hot, cold, wet, or windy it might be!

Date:

Astronomy

Feb. 03, 2013 Rise Set
Actual Time 5:39 AM AWST 6:30 PM AWST
Civil Twilight 5:16 AM AWST 6:53 PM AWST
Nautical Twilight 4:49 AM AWST 7:20 PM AWST
Astronomical Twilight 4:21 AM AWST 7:47 PM AWST
Moon 11:25 PM AWST (2/3) 11:42 AM AWST (2/3)
Length of Visible Light 13h 37m
Length of Day
12h 51m
Waning Gibbous, 55% of the Moon is Illuminated
Feb 3
Waning Gibbous
Feb 3
Last Quarter
Feb 10
New
Feb 18
First Quarter
Feb 26
Full

Hourly Weather History & Observations

Time (AWST) Temp. Heat Index Dew Point Humidity Pressure Visibility Wind Dir Wind Speed Gust Speed Precip Events Conditions
12:00 AM 86 °F - 80 °F 76% 29.83 in - West 9.2 mph - -  
12:00 AM 86.0 °F 99.3 °F 78.8 °F 79% 29.83 in 6.2 mi West 9.2 mph - N/A   Scattered Clouds
12:30 AM 86.0 °F 99.3 °F 78.8 °F 79% 29.80 in 6.2 mi West 10.4 mph - N/A   Scattered Clouds
1:00 AM 86.0 °F 99.3 °F 78.8 °F 79% 29.80 in 6.2 mi West 10.4 mph - N/A   Scattered Clouds
1:30 AM 86.0 °F 99.3 °F 78.8 °F 79% 29.80 in 6.2 mi WNW 8.1 mph - N/A   Scattered Clouds
2:00 AM 85 °F - 79 °F 77% 29.80 in - WNW 9.2 mph - -  
2:00 AM 86.0 °F 99.3 °F 78.8 °F 79% 29.80 in 6.2 mi WNW 9.2 mph - N/A   Scattered Clouds
2:30 AM 86.0 °F 99.3 °F 78.8 °F 79% 29.80 in 6.2 mi West 8.1 mph - N/A   Scattered Clouds
3:00 AM 86 °F - 79 °F 73% 29.81 in - West 9.2 mph - -  
3:00 AM 86.0 °F 99.3 °F 78.8 °F 79% 29.80 in 6.2 mi West 9.2 mph - N/A   Scattered Clouds
3:30 AM 86.0 °F 96.9 °F 77.0 °F 74% 29.80 in 6.2 mi West 8.1 mph - N/A   Scattered Clouds
4:00 AM 86.0 °F 96.9 °F 77.0 °F 74% 29.80 in 6.2 mi West 9.2 mph - N/A   Unknown
4:30 AM 86.0 °F 96.9 °F 77.0 °F 74% 29.80 in 6.2 mi West 8.1 mph - N/A   Unknown
5:00 AM 85 °F - 77 °F 71% 29.81 in - West 8.1 mph - -  
5:00 AM 86.0 °F 96.9 °F 77.0 °F 74% 29.80 in 6.2 mi West 8.1 mph - N/A   Scattered Clouds
5:30 AM 86.0 °F 96.9 °F 77.0 °F 74% 29.83 in 6.2 mi West 9.2 mph - N/A   Partly Cloudy
6:00 AM 86 °F - 78 °F 70% 29.86 in 19 mi NW 5.8 mph - -   Haze
6:00 AM 86.0 °F 96.9 °F 77.0 °F 74% 29.86 in 6.2 mi NW 5.8 mph - N/A   Scattered Clouds
6:30 AM 86.0 °F 96.9 °F 77.0 °F 74% 29.86 in 6.2 mi NW 5.8 mph - N/A   Partly Cloudy
7:00 AM 87.8 °F 99.7 °F 77.0 °F 70% 29.86 in 6.2 mi NW 6.9 mph - N/A   Partly Cloudy
7:30 AM 87.8 °F 99.7 °F 77.0 °F 70% 29.86 in 6.2 mi WNW 8.1 mph - N/A   Partly Cloudy
8:00 AM 89 °F - 78 °F 62% 29.88 in - NW 10.4 mph - -  
8:00 AM 89.6 °F 102.2 °F 77.0 °F 66% 29.86 in 6.2 mi NW 10.4 mph - N/A   Partly Cloudy
8:30 AM 89.6 °F 102.2 °F 77.0 °F 66% 29.89 in 6.2 mi WNW 10.4 mph - N/A   Partly Cloudy
9:00 AM 90 °F - 77 °F 58% 29.87 in 19 mi WNW 12.7 mph - -   Partly Cloudy
9:00 AM 89.6 °F 102.2 °F 77.0 °F 66% 29.86 in 6.2 mi WNW 12.7 mph - N/A   Partly Cloudy
9:30 AM 89.6 °F 102.2 °F 77.0 °F 66% 29.86 in 6.2 mi WNW 11.5 mph - N/A   Partly Cloudy
10:00 AM 91.4 °F 105.1 °F 77.0 °F 63% 29.86 in 6.2 mi West 13.8 mph - N/A   Partly Cloudy
10:30 AM 89.6 °F 102.2 °F 77.0 °F 66% 29.86 in 6.2 mi West 13.8 mph - N/A   Partly Cloudy
11:00 AM 91 °F - 77 °F 56% 29.85 in - West 12.7 mph - -  
11:00 AM 91.4 °F 105.1 °F 77.0 °F 63% 29.83 in 6.2 mi West 12.7 mph - N/A   Scattered Clouds
11:30 AM 93.2 °F 107.2 °F 77.0 °F 59% 29.83 in 6.2 mi WNW 12.7 mph - N/A   Partly Cloudy
12:00 PM 92 °F - 76 °F 52% 29.83 in 19 mi WNW 12.7 mph - -   Partly Cloudy
12:00 PM 91.4 °F 105.1 °F 77.0 °F 63% 29.83 in 6.2 mi WNW 12.7 mph - N/A   Partly Cloudy
12:30 PM 91.4 °F 105.1 °F 77.0 °F 63% 29.83 in 6.2 mi West 12.7 mph - N/A   Partly Cloudy
1:00 PM 93.2 °F 107.2 °F 77.0 °F 59% 29.80 in 6.2 mi WNW 11.5 mph - N/A   Partly Cloudy
1:30 PM 91.4 °F 105.1 °F 77.0 °F 63% 29.80 in 6.2 mi WNW 12.7 mph - N/A   Partly Cloudy
2:00 PM 92 °F - 77 °F 53% 29.80 in - West 12.7 mph - -  
2:00 PM 91.4 °F 105.1 °F 77.0 °F 63% 29.80 in 6.2 mi West 12.7 mph - N/A   Partly Cloudy
2:30 PM 91.4 °F 105.1 °F 77.0 °F 63% 29.77 in 6.2 mi West 11.5 mph - N/A   Partly Cloudy
3:00 PM 92 °F - 77 °F 53% 29.79 in 19 mi West 11.5 mph - -   Partly Cloudy
3:00 PM 93.2 °F 107.2 °F 77.0 °F 59% 29.77 in 6.2 mi West 11.5 mph - N/A   Partly Cloudy
3:30 PM 91.4 °F 105.1 °F 77.0 °F 63% 29.77 in 6.2 mi West 12.7 mph - N/A   Partly Cloudy
4:00 PM 91.4 °F 105.1 °F 77.0 °F 63% 29.77 in 6.2 mi West 11.5 mph - N/A   Partly Cloudy
4:30 PM 91.4 °F 107.2 °F 78.8 °F 66% 29.77 in 6.2 mi West 11.5 mph - N/A   Partly Cloudy
5:00 PM 90 °F - 78 °F 61% 29.78 in - West 11.5 mph - -  
5:00 PM 89.6 °F 104.7 °F 78.8 °F 70% 29.77 in 6.2 mi West 11.5 mph - N/A   Partly Cloudy
5:30 PM 89.6 °F 104.7 °F 78.8 °F 70% 29.77 in 6.2 mi West 12.7 mph - N/A   Partly Cloudy
6:00 PM 88 °F - 78 °F 67% 29.78 in 19 mi West 11.5 mph - -   Partly Cloudy
6:00 PM 87.8 °F 102.5 °F 78.8 °F 75% 29.77 in - West 11.5 mph - N/A   Clear
6:30 PM 87.8 °F 102.5 °F 78.8 °F 75% 29.77 in 6.2 mi West 9.2 mph - N/A   Unknown
7:00 PM 87.8 °F 102.5 °F 78.8 °F 75% 29.80 in - West 9.2 mph - N/A   Clear
7:30 PM 87.8 °F 102.5 °F 78.8 °F 75% 29.80 in - West 6.9 mph - N/A   Clear
8:00 PM 87 °F - 80 °F 73% 29.82 in - WNW 8.1 mph - -  
8:00 PM 86.0 °F 99.3 °F 78.8 °F 79% 29.80 in - WNW 8.1 mph - N/A   Clear
8:30 PM 86.0 °F 99.3 °F 78.8 °F 79% 29.83 in - WNW 6.9 mph - N/A   Clear
9:00 PM 86.0 °F 99.3 °F 78.8 °F 79% 29.83 in - WNW 8.1 mph - N/A   Clear
9:30 PM 86.0 °F 101.9 °F 80.6 °F 84% 29.83 in 6.2 mi NW 5.8 mph - N/A   Unknown
10:00 PM 86.0 °F 99.3 °F 78.8 °F 79% 29.86 in 6.2 mi NW 6.9 mph - N/A   Unknown
10:30 PM 86.0 °F 99.3 °F 78.8 °F 79% 29.83 in 6.2 mi NW 9.2 mph - N/A   Unknown
11:00 PM 86 °F - 80 °F 77% 29.85 in - NW 9.2 mph - -  
11:00 PM 86.0 °F 101.9 °F 80.6 °F 84% 29.83 in 6.2 mi NW 9.2 mph - N/A   Scattered Clouds
11:30 PM 86.0 °F 99.3 °F 78.8 °F 79% 29.83 in 6.2 mi NW 9.2 mph - N/A   Scattered Clouds